Location: Maiden
(35.5760°N, 81.2120°W)
Time: 03:32:00
(UTC-04:00)

Vanguard 2 - Pass Details

Date: 04 August 2020
Orbit: 553 x 2937 km, 32.9° (Epoch: 20 September)

Event Time Altitude Azimuth Distance (km) Brightness Sun altitude
Rises 22:26:39 0° 231° (SW) 6,685 12.4 -21.8°
Reaches altitude 10° 22:31:35 10° 227° (SW) 5,503 11.9 -22.5°
Maximum altitude 22:46:22 50° 159° (SSE) 2,528 9.7 -24.7°
Enters shadow 22:51:00 34° 109° (ESE) 2,679 9.8 -25.3°
Drops below altitude 10° 22:55:57 10° 87° (E) 3,665 - -26.0°
Sets 22:58:33 0° 82° (E) 4,370 - -26.4°
